EHI
0 0 0 0 0 0 0 0 0 0 0 0 1 3 4 4 6 9 11 14 20 27 31 35 39 42 50 59 63 65 63 61 58 53 48 48 47 42 41 42 45 50 51 49
0 0 0 0 0 0 0 0 0 0 0 0 1 3 4 5 8 13 15 15 19 26 31 34 37 39 45 53 58 60 58 55 52 48 43 41 39 37 34 33 36 41 43 43
0 0 0 0 0 0 0 0 0 0 0 0 1 3 6 9 13 17 17 16 18 24 28 30 33 36 39 45 50 52 51 50 46 41 36 31 28 26 22 20 22 25 28 29
0 0 0 0 0 0 0 0 0 0 0 0 0 2 6 12 16 16 15 17 19 21 24 26 29 33 36 40 44 46 47 46 43 39 34 26 21 17 13 12 13 13 15 16
0 0 0 0 0 0 0 0 0 0 0 0 0 1 5 10 13 13 14 16 18 19 21 25 28 31 33 36 40 41 41 40 40 40 36 27 18 13 9 7 6 7 8 9
0 0 0 0 0 0 0 0 0 0 0 0 0 0 3 7 10 13 14 14 15 17 20 25 29 31 32 34 37 37 35 32 33 36 34 26 16 10 6 4 2 3 6 6
0 0 0 0 0 0 0 0 0 0 0 0 0 0 3 8 13 14 12 12 14 16 18 21 25 28 29 31 33 33 30 26 25 27 27 21 13 7 4 3 3 4 6 6
0 0 0 0 0 0 0 0 0 0 0 0 0 0 3 8 13 13 11 11 14 16 15 15 18 20 22 25 27 28 26 22 19 19 19 15 9 4 2 3 4 5 5 5
0 0 0 0 0 0 0 0 0 0 0 0 0 0 2 5 8 8 8 10 13 13 11 11 12 13 13 15 17 19 18 16 13 12 11 7 4 2 1 1 3 3 2 2
0 0 0 0 0 0 0 0 0 0 0 0 0 0 1 2 3 4 6 9 10 9 7 7 8 6 6 7 9 10 11 9 7 4 3 2 1 0 0 0 1 1 0 0
0 0 0 0 0 0 0 0 0 0 0 0 0 0 1 2 3 5 7 8 8 6 4 3 3 2 1 2 4 5 6 6 4 1 0 0 0 0 0 0 0 0 0 0
0 0 0 0 0 0 0 0 0 0 0 0 0 1 2 3 5 6 6 6 5 4 2 1 1 0 0 0 1 3 3 3 2 1 0 0 0 0 0 0 0 0 0 0
0 0 0 0 0 0 0 0 0 0 0 0 0 1 3 5 6 4 2 2 2 2 0 0 0 0 0 0 0 1 1 1 1 0 0 0 0 0 0 0 0 0 0 0
0 0 0 0 0 0 0 0 0 0 0 0 0 1 3 6 5 2 0 1 1 1 0 0 0 0 0 0 0 0 0 0 0 0 0 0 0 0 0 0 0 0 0 0
0 0 0 0 0 0 0 0 0 0 0 0 0 0 3 5 3 1 1 2 1 0 0 0 0 0 0 0 0 0 0 0 0 0 0 0 0 0 0 0 0 0 0 0
0 0 0 0 0 0 0 0 0 0 0 0 0 1 3 4 2 0 1 2 1 0 0 0 0 0 0 0 0 0 0 0 0 0 0 0 0 0 0 0 0 0 0 0
0 0 0 0 0 0 0 0 0 0 0 1 2 4 5 4 1 0 0 1 0 0 0 0 0 0 0 0 0 0 0 0 0 0 0 0 0 0 0 0 0 0 0 0
0 0 0 0 0 0 0 0 0 0 0 2 5 7 7 4 1 0 0 0 0 0 0 0 0 0 0 0 0 0 0 0 0 0 0 0 0 0 0 0 0 0 0 0
0 0 0 0 0 0 0 0 0 0 0 2 6 8 6 3 0 0 0 0 0 0 0 0 0 0 0 0 0 0 0 0 0 0 0 0 0 0 0 0 0 0 0 0
0 0 0 0 0 0 0 0 0 0 0 3 6 6 4 1 0 0 0 0 0 0 0 0 0 0 0 0 0 0 0 0 0 0 0 0 0 0 0 0 0 0 0 0
0 0 0 0 0 0 0 0 0 0 2 5 5 3 1 1 0 0 0 0 0 0 0 0 0 0 0 0 0 0 0 0 0 0 0 0 0 0 0 0 0 0 0 0
0 0 0 0 0 0 0 0 1 2 4 6 5 2 1 1 0 0 0 0 0 0 0 0 0 0 0 0 0 0 0 0 0 0 0 0 0 0 0 0 0 0 0 0
0 0 0 0 0 1 1 1 3 4 4 3 2 1 1 1 0 0 0 0 0 0 0 0 0 0 0 0 0 0 0 0 0 0 0 0 0 0 0 0 0 0 0 0
0 0 0 0 0 1 1 2 4 3 2 1 0 0 0 0 0 0 0 0 0 0 0 0 0 0 0 0 0 0 0 0 0 0 0 0 0 0 0 0 0 0 0 0
0 0 0 0 0 1 2 3 3 2 1 0 0 0 0 0 0 0 0 0 0 0 0 0 0 0 0 0 0 0 0 0 0 0 0 0 0 0 0 0 0 0 0 0
0 0 0 0 1 2 3 4 3 1 0 0 0 0 0 0 0 0 0 0 0 0 0 0 0 0 0 0 0 0 0 0 0 0 0 0 0 0 0 0 0 0 0 0
Wind_Speed
13 13 13 13 13 11 12 12 13 12 9 8 10 10 10 9 7 7 5 3 2 1 4 6 7 7 6 6 5 3 4 4 3 2 3 3 2 3 3 2 3 2 2 2
14 15 14 12 7 8 11 13 14 13 10 8 10 12 11 10 7 5 3 1 0 2 5 7 8 6 5 5 5 4 4 4 4 2 1 2 3 3 3 3 3 3 2 2
16 12 8 8 9 10 13 13 13 13 12 12 14 15 12 8 3 2 1 1 1 5 7 8 7 6 5 5 3 3 3 4 5 5 2 3 3 3 2 3 3 4 4 4
14 13 8 8 11 13 13 12 12 13 14 12 14 13 9 4 3 2 2 3 5 6 7 7 7 7 7 5 4 4 3 3 4 5 5 6 4 4 3 3 4 6 7 6
12 11 10 11 12 12 13 13 13 14 16 15 14 13 7 3 3 3 4 5 7 8 9 8 7 6 7 6 6 5 5 4 4 4 6 6 7 6 5 5 7 6 7 8
16 14 11 12 11 11 12 14 15 14 12 14 11 12 8 3 3 7 6 5 4 5 8 8 8 8 8 7 6 6 6 5 5 5 6 7 10 10 9 7 7 6 5 6
15 15 13 11 11 11 10 10 9 10 8 8 8 8 4 2 5 11 11 8 6 7 9 9 10 10 9 9 7 7 7 7 6 6 7 9 9 10 10 8 7 6 6 6
12 9 8 8 9 9 9 10 9 9 11 8 5 6 1 7 7 10 11 9 8 8 9 10 10 10 9 9 9 8 8 7 8 9 9 10 9 7 7 8 8 7 6 7
8 7 5 6 6 9 10 9 10 11 13 11 5 3 1 6 7 8 10 9 9 9 10 10 10 10 10 10 10 9 9 9 10 10 11 11 10 10 10 10 9 7 7 8
9 10 9 8 8 9 10 9 7 7 8 9 6 2 2 1 4 7 8 9 9 9 10 10 10 10 10 10 10 10 10 10 11 11 11 11 12 11 11 11 11 10 10 9
6 8 10 9 8 9 9 9 8 7 8 7 8 3 1 2 4 7 8 8 9 9 9 10 10 10 10 11 11 11 11 11 11 12 12 13 12 12 12 11 10 9 9 9
3 6 9 9 9 9 10 9 8 7 8 7 7 2 3 4 6 8 10 10 10 10 10 10 10 10 10 11 11 11 11 11 12 12 13 13 12 12 11 10 9 9 9 8
4 4 7 7 6 5 6 9 9 7 6 6 8 1 6 9 10 10 11 10 9 10 11 11 11 10 10 10 10 11 11 11 12 12 13 12 11 11 10 9 9 9 9 8
3 6 7 8 8 6 8 10 9 8 6 6 6 1 5 9 10 9 10 10 10 10 10 11 10 10 9 9 10 10 10 10 12 12 12 11 10 9 9 9 8 8 8 7
4 7 9 11 11 10 11 9 9 8 7 6 3 1 7 10 11 11 10 11 10 10 10 11 10 9 9 9 9 10 10 10 10 12 12 11 9 9 9 8 7 7 6 7
3 7 10 11 12 11 9 8 8 7 5 3 3 5 9 12 11 10 11 11 11 10 10 11 11 10 10 9 9 10 10 9 9 11 11 10 9 8 8 7 6 6 6 5
5 6 9 9 12 10 6 4 4 4 5 4 4 7 13 12 11 11 11 11 11 11 11 11 10 10 9 9 9 9 9 8 9 10 10 9 9 8 7 7 6 6 5 6
7 7 6 9 8 6 2 2 3 4 6 7 10 12 12 12 11 9 10 12 12 11 11 11 10 10 10 9 9 9 9 9 9 9 9 8 8 8 7 6 6 6 5 6
7 7 7 6 6 5 1 2 2 3 5 8 12 14 14 15 12 8 9 11 12 11 11 10 10 10 10 9 9 8 8 8 8 8 8 7 7 7 6 6 6 5 5 5
6 6 7 7 7 4 2 3 2 2 4 9 12 14 15 13 7 7 10 13 13 12 10 10 10 10 9 8 7 8 8 7 8 7 7 6 6 6 6 6 5 4 4 5
7 7 8 9 5 2 4 4 3 2 4 8 11 13 12 7 6 14 15 14 13 13 12 11 10 9 8 8 7 7 7 7 7 7 7 7 6 6 6 5 4 4 4 5
4 3 3 4 2 2 5 5 6 6 8 9 11 11 12 14 17 18 16 15 14 13 12 11 10 9 7 7 7 7 7 6 6 6 6 5 4 5 6 4 3 3 4 5
1 2 1 2 4 5 7 8 8 8 10 11 12 14 16 17 17 17 16 14 14 13 11 10 11 10 8 7 7 8 6 6 6 6 5 5 5 5 4 4 3 3 2 3
1 1 2 4 8 7 8 10 10 11 12 13 14 15 16 17 17 17 15 13 13 12 11 10 11 11 8 7 7 7 7 6 6 6 5 5 4 4 4 3 3 4 4 3
1 0 2 6 9 9 10 11 12 13 14 15 15 16 16 17 17 16 13 12 12 11 10 9 9 9 9 8 8 8 7 5 5 5 4 4 5 6 6 7 7 7 7 6
3 2 2 4 8 8 11 12 14 15 15 15 16 16 16 16 16 15 13 12 11 11 10 9 9 10 9 8 8 7 6 5 5 4 4 4 4 4 5 7 7 11 8 9
Wind_Direction
225 233 244 243 239 271 304 302 297 290 280 265 269 267 265 253 237 243 233 225 247 48 65 68 69 67 70 89 102 115 133 130 134 153 161 160 135 100 90 85 97 142 167 162
239 235 249 268 280 288 284 280 278 281 286 281 278 274 270 259 239 227 213 197 99 63 56 63 61 55 65 89 103 115 118 122 117 118 151 138 123 106 101 88 77 76 94 118
242 250 235 257 272 266 267 273 284 293 295 280 271 264 261 261 233 179 146 109 86 81 57 50 46 54 62 66 88 108 105 122 133 133 134 118 102 95 90 80 68 58 65 69
253 258 254 254 261 263 272 279 285 288 285 282 281 280 273 235 202 173 61 35 37 62 61 48 39 38 45 56 66 72 96 107 125 138 144 142 135 125 100 86 74 61 59 61
257 251 247 251 258 269 282 292 292 286 283 281 279 277 275 244 212 133 80 53 37 44 60 51 42 35 44 45 57 57 66 69 86 120 138 138 124 111 102 96 85 73 63 60
268 273 265 264 269 273 282 288 283 276 275 274 289 288 277 277 188 144 136 111 64 49 67 58 53 43 44 40 49 52 67 64 69 86 109 120 120 117 113 105 96 82 72 67
253 259 261 259 263 264 273 282 285 286 277 279 318 302 311 53 147 146 138 117 93 68 63 55 47 43 39 36 43 48 64 70 71 85 93 99 106 110 109 106 97 91 83 75
267 263 253 242 247 272 276 274 274 285 290 291 288 275 343 82 98 109 110 112 103 83 68 58 50 45 39 35 40 50 61 70 73 81 86 90 95 95 94 92 93 90 86 82
290 302 298 275 260 263 268 269 274 272 278 284 266 253 68 99 97 98 105 101 93 83 75 66 58 50 44 40 41 51 65 70 75 79 87 86 87 91 92 89 87 85 84 84
282 296 292 290 271 254 263 279 285 283 290 290 290 304 342 161 133 125 113 106 94 84 77 68 62 57 52 49 48 53 65 71 77 80 83 86 85 86 86 86 85 86 86 84
275 289 293 298 290 298 285 273 278 287 293 303 303 318 20 146 149 127 114 108 102 91 79 72 67 65 60 57 57 60 65 70 74 77 81 84 84 86 86 87 88 88 87 85
281 289 295 310 312 311 297 293 289 288 294 300 298 345 72 115 125 117 111 104 97 93 86 81 75 70 68 65 63 66 72 75 77 79 81 81 81 83 87 89 90 90 89 85
338 298 300 319 327 332 309 302 295 288 288 291 297 14 95 98 100 97 102 100 96 94 91 86 81 74 72 73 74 74 77 81 83 82 82 83 82 84 87 87 87 86 86 83
295 278 282 279 283 286 283 280 287 292 293 296 308 190 133 120 118 117 114 109 102 96 94 90 86 81 78 78 82 83 82 84 88 88 87 85 84 84 85 85 84 83 84 84
273 275 280 281 284 268 272 290 297 298 310 315 326 122 147 138 133 129 125 119 114 108 104 100 96 92 88 85 86 88 89 89 93 93 91 88 87 86 86 83 81 81 84 88
244 281 292 293 288 284 288 300 303 308 329 360 63 85 118 121 123 129 132 131 126 121 114 111 108 103 99 97 95 94 93 95 97 97 97 98 96 93 91 90 87 85 84 85
262 270 291 293 297 298 294 304 308 342 5 8 25 115 130 131 136 140 138 135 131 125 119 114 111 107 102 100 102 101 101 101 99 98 99 101 101 99 98 102 98 94 92 88
269 285 286 285 297 293 308 33 28 46 40 62 96 120 128 127 123 124 134 137 131 127 123 119 116 112 108 108 107 107 108 105 102 101 101 104 107 106 106 103 98 94 91 91
232 262 279 286 295 285 312 17 1 51 67 94 113 120 120 119 112 109 123 128 127 126 123 118 116 116 114 113 113 113 111 108 107 107 108 109 110 110 110 105 102 100 101 103
224 234 256 277 292 303 24 34 24 83 101 107 123 133 139 148 141 141 138 130 126 123 121 122 123 122 120 122 125 122 118 117 116 118 118 114 111 109 105 104 108 111 112 113
222 231 246 267 282 51 20 337 316 347 107 123 130 142 154 167 115 130 136 133 131 129 129 131 130 126 128 130 127 119 117 116 116 116 113 112 113 114 107 107 109 113 111 106
245 261 287 302 314 57 4 7 46 88 112 118 124 130 125 111 115 127 134 135 136 135 137 137 132 129 133 134 128 118 117 117 114 113 115 118 121 117 111 108 104 106 116 120
295 57 30 36 74 86 63 75 92 105 112 117 121 123 123 124 128 131 134 137 139 139 140 139 136 134 136 135 131 124 122 120 117 112 110 104 99 93 106 116 119 122 123 125
36 59 105 101 102 97 90 93 96 102 111 115 120 125 127 127 130 133 136 138 138 138 139 141 139 138 139 141 134 126 123 121 121 117 113 111 108 99 82 68 64 57 44 51
190 128 91 106 118 112 101 102 106 108 112 116 119 122 126 128 132 135 137 139 139 140 140 141 140 137 135 134 131 129 127 124 123 120 111 106 99 96 84 69 50 64 51 43
18 58 50 107 130 118 117 116 117 119 120 121 121 122 126 131 134 136 138 139 139 140 140 141 139 135 134 134 131 130 131 131 129 123 121 119 119 120 120 114 90 60 78 74